Left ArrowRight Arrow

Hourly Observations for October 31, 2015

Temp ( °F °C ) Dew Point ( °F °C ) Humidity (%) Winds ( mph kmh ) Pressure ( in mb ) Visibility ( mi km ) Precip ( " mm )
1:53 am 01:53 Cloudy 82 27.8 75 23.9 79 79 NW 6 9 29.96 1015 10 16 0.00 0.00
2:38 am 02:38 Cloudy 82 28 75 24 79 79 NNW 6 9 29.94 1014 10 16 0.00 0.00
2:53 am 02:53 Cloudy 82 27.8 75 23.9 79 79 NNW 8 13 29.95 1014 10 16 0.00 0.00
3:09 am 03:09 Cloudy 81 27 75 24 84 84 NW 8 13 29.94 1014 10 16 0.00 0.00
3:34 am 03:34 Cloudy 81 27 75 24 84 84 NNW 7 11 29.94 1014 10 16 0.00 0.00
3:53 am 03:53 Cloudy 81 27.2 75 23.9 82 82 N 6 9 29.95 1014 10 16 0.00 0.00
4:00 am 04:00 Cloudy 81 27 75 24 84 84 NNE 7 11 29.94 1014 10 16 0.00 0.00
4:53 am 04:53 Partly Cloudy 79 26.1 72 22.2 79 79 NNE 6 9 29.95 1014 9 14 0.00 0.00
5:53 am 05:53 Partly Cloudy 79 26.1 71 21.7 77 77 NE 5 7 29.96 1015 10 16 0.00 0.00
6:53 am 06:53 Partly Cloudy 80 26.7 72 22.2 76 76 ENE 3 6 29.98 1015 10 16 0.00 0.00
7:53 am 07:53 Sunny 83 28.3 73 22.8 72 72 NE 3 6 29.99 1016 10 16 0.00 0.00
8:53 am 08:53 Partly Cloudy 83 28.3 75 23.9 77 77 Calm 30.00 1016 10 16 0.00 0.00
9:53 am 09:53 Sunny 85 29.4 75 23.9 72 72 VRB 6 9 30.00 1016 10 16 0.00 0.00
10:53 am 10:53 Partly Cloudy 86 30 75 23.9 70 70 W 8 13 29.98 1015 10 16 0.00 0.00
11:53 am 11:53 Mostly Cloudy 86 30 75 23.9 70 70 WNW 9 15 29.96 1015 10 16 0.00 0.00
12:53 pm 12:53 Partly Cloudy 86 30 75 23.9 70 70 W 8 13 29.94 1014 10 16 0.00 0.00
1:53 pm 13:53 Mostly Cloudy 86 30 73 22.8 65 65 W 9 15 29.93 1014 10 16 0.00 0.00
2:53 pm 14:53 Mostly Cloudy 87 30.6 74 23.3 65 65 WNW 8 13 29.92 1013 10 16 0.00 0.00
3:53 pm 15:53 Mostly Cloudy 85 29.4 73 22.8 68 68 W 8 13 29.92 1013 10 16 0.00 0.00
4:53 pm 16:53 Mostly Cloudy 84 28.9 73 22.8 70 70 WNW 8 13 29.93 1013 10 16 0.00 0.00

Powered by Vaisala Xweather